• In Kazakhstan
  • List of Countries
  • For 7 days
  • Water Temperature
  • Satellite Maps
  • Weather Map
  • News
  • Weather Widgets
  • user-avatar
    Login

    Hourly Weather Ondjiwa

    Today, 22 March, Friday

    Time Temperature Precipitation Wind Pressure Humidity
    00:00 +27°C° 0 mm 2 mps 666 mmHg 37%
    01:00 +27°C° 0 mm 3 mps 666 mmHg 44%
    02:00 +27°C° 0.1 mm 2 mps 666 mmHg 47%
    03:00 +26°C° 0.1 mm 2 mps 666 mmHg 49%
    04:00 +26°C° 0.1 mm 2 mps 666 mmHg 52%
    05:00 +25°C° 0 mm 2 mps 666 mmHg 55%
    06:00 +25°C° 0 mm 2 mps 667 mmHg 57%
    07:00 +25°C° 0 mm 3 mps 667 mmHg 59%
    08:00 +28°C° 0 mm 2 mps 668 mmHg 50%
    09:00 +31°C° 0 mm 2 mps 668 mmHg 41%
    10:00 +35°C° 0 mm 2 mps 669 mmHg 32%
    11:00 +36°C° 0 mm 2 mps 669 mmHg 28%
    12:00 +38°C° 0 mm 2 mps 668 mmHg 25%
    13:00 +39°C° 0 mm 2 mps 668 mmHg 21%
    14:00 +37°C° 0 mm 2 mps 667 mmHg 25%
    15:00 +35°C° 0 mm 2 mps 667 mmHg 29%
    16:00 +32°C° 0 mm 2 mps 666 mmHg 33%
    17:00 +31°C° 0 mm 2 mps 666 mmHg 35%
    18:00 +31°C° 0 mm 1 mps 667 mmHg 37%
    19:00 +30°C° 0 mm 1 mps 667 mmHg 39%
    20:00 +29°C° 0 mm 2 mps 667 mmHg 42%
    21:00 +28°C° 0 mm 2 mps 667 mmHg 45%
    22:00 +27°C° 0 mm 3 mps 668 mmHg 48%
    23:00 +26°C° 0 mm 3 mps 667 mmHg 53%

    Tomorrow, 23 March, Saturday

    Time Temperature Precipitation Wind Pressure Humidity
    00:00 +25°C° 0 mm 3 mps 667 mmHg 58%
    01:00 +24°C° 0 mm 2 mps 667 mmHg 63%
    02:00 +24°C° 0.1 mm 2 mps 667 mmHg 64%
    03:00 +24°C° 0.1 mm 2 mps 666 mmHg 65%
    04:00 +23°C° 0.1 mm 2 mps 666 mmHg 66%
    05:00 +24°C° 0.1 mm 2 mps 667 mmHg 65%
    06:00 +24°C° 0.1 mm 1 mps 667 mmHg 64%
    07:00 +25°C° 0.1 mm 1 mps 667 mmHg 63%
    08:00 +28°C° 0 mm 1 mps 668 mmHg 53%
    09:00 +31°C° 0 mm 1 mps 669 mmHg 42%
    10:00 +35°C° 0 mm 2 mps 670 mmHg 31%
    11:00 +35°C° 0 mm 1 mps 669 mmHg 28%
    12:00 +36°C° 0 mm 1 mps 669 mmHg 25%
    13:00 +39°C° 0 mm 1 mps 668 mmHg 22%
    14:00 +37°C° 0 mm 1 mps 668 mmHg 22%
    15:00 +37°C° 0 mm 1 mps 667 mmHg 23%
    16:00 +36°C° 0 mm 1 mps 667 mmHg 23%
    17:00 +35°C° 0 mm 2 mps 667 mmHg 27%
    18:00 +32°C° 0 mm 2 mps 666 mmHg 31%
    19:00 +30°C° 0 mm 2 mps 666 mmHg 35%
    20:00 +29°C° 0 mm 2 mps 666 mmHg 36%
    21:00 +28°C° 0 mm 1 mps 667 mmHg 37%
    22:00 +28°C° 0 mm 1 mps 667 mmHg 39%
    23:00 +27°C° 0 mm 1 mps 667 mmHg 40%

    Day after tomorrow, 24 March, Sunday

    Time Temperature Precipitation Wind Pressure Humidity
    00:00 +27°C° 0 mm 1 mps 667 mmHg 41%
    01:00 +26°C° 0 mm 1 mps 667 mmHg 42%
    02:00 +25°C° 0 mm 1 mps 666 mmHg 45%
    03:00 +25°C° 0 mm 2 mps 666 mmHg 49%
    04:00 +24°C° 0 mm 2 mps 666 mmHg 52%
    05:00 +24°C° 0 mm 2 mps 666 mmHg 51%
    06:00 +24°C° 0 mm 2 mps 667 mmHg 51%
    07:00 +24°C° 0 mm 2 mps 667 mmHg 50%
    08:00 +27°C° 0 mm 2 mps 668 mmHg 43%
    09:00 +30°C° 0 mm 2 mps 669 mmHg 36%
    10:00 +34°C° 0 mm 2 mps 669 mmHg 30%
    11:00 +35°C° 0 mm 2 mps 669 mmHg 26%
    12:00 +37°C° 0 mm 2 mps 668 mmHg 23%
    13:00 +38°C° 0 mm 2 mps 668 mmHg 20%
    14:00 +38°C° 0 mm 2 mps 667 mmHg 20%
    15:00 +36°C° 0 mm 1 mps 666 mmHg 20%
    16:00 +36°C° 0 mm 1 mps 666 mmHg 20%
    17:00 +34°C° 0 mm 1 mps 666 mmHg 24%
    18:00 +32°C° 0 mm 2 mps 666 mmHg 27%
    19:00 +30°C° 0 mm 2 mps 666 mmHg 30%
    20:00 +29°C° 0 mm 2 mps 666 mmHg 33%
    21:00 +28°C° 0 mm 1 mps 666 mmHg 35%
    22:00 +27°C° 0 mm 1 mps 666 mmHg 37%
    23:00 +27°C° 0 mm 1 mps 666 mmHg 37%

    25 March, Monday

    Time Temperature Precipitation Wind Pressure Humidity
    00:00 +28°C° 0 mm 2 mps 666 mmHg 37%
    01:00 +28°C° 0 mm 2 mps 666 mmHg 36%
    02:00 +27°C° 0 mm 3 mps 666 mmHg 37%
    03:00 +26°C° 0 mm 3 mps 666 mmHg 38%
    04:00 +26°C° 0 mm 4 mps 666 mmHg 39%
    05:00 +26°C° 0 mm 3 mps 666 mmHg 39%
    06:00 +25°C° 0 mm 2 mps 666 mmHg 39%
    07:00 +25°C° 0 mm 1 mps 667 mmHg 39%
    08:00 +28°C° 0 mm 1 mps 667 mmHg 34%
    09:00 +30°C° 0 mm 1 mps 668 mmHg 29%
    10:00 +33°C° 0 mm 1 mps 669 mmHg 24%
    11:00 +35°C° 0 mm 2 mps 668 mmHg 23%
    12:00 +36°C° 0 mm 3 mps 667 mmHg 22%
    13:00 +38°C° 0 mm 3 mps 667 mmHg 21%
    14:00 +38°C° 0 mm 3 mps 666 mmHg 21%
    15:00 +37°C° 0 mm 2 mps 666 mmHg 22%
    16:00 +36°C° 0 mm 1 mps 665 mmHg 22%
    17:00 +35°C° 0.1 mm 2 mps 665 mmHg 26%
    18:00 +32°C° 0.1 mm 2 mps 665 mmHg 31%
    19:00 +30°C° 0.1 mm 2 mps 665 mmHg 35%
    20:00 +29°C° 0 mm 2 mps 665 mmHg 38%
    21:00 +28°C° 0 mm 2 mps 666 mmHg 40%
    22:00 +27°C° 0 mm 2 mps 666 mmHg 43%
    23:00 +26°C° 1.1 mm 2 mps 666 mmHg 50%

    26 March, Tuesday

    Time Temperature Precipitation Wind Pressure Humidity
    00:00 +25°C° 1.1 mm 2 mps 666 mmHg 58%
    01:00 +24°C° 1.1 mm 2 mps 666 mmHg 65%
    02:00 +24°C° 0.3 mm 2 mps 666 mmHg 65%
    03:00 +24°C° 0.3 mm 1 mps 666 mmHg 66%
    04:00 +23°C° 0.3 mm 1 mps 666 mmHg 66%
    05:00 +23°C° 0 mm 1 mps 666 mmHg 67%
    06:00 +23°C° 0 mm 1 mps 667 mmHg 69%
    07:00 +23°C° 0 mm 1 mps 667 mmHg 70%
    08:00 +25°C° 0 mm 1 mps 668 mmHg 63%
    09:00 +27°C° 0 mm 1 mps 668 mmHg 56%
    10:00 +28°C° 0 mm 2 mps 669 mmHg 49%
    11:00 +29°C° 0 mm 1 mps 668 mmHg 46%
    12:00 +30°C° 0 mm 1 mps 667 mmHg 43%
    13:00 +28°C° 0 mm 0 mps 666 mmHg 40%
    14:00 +29°C° 0 mm 0 mps 666 mmHg 38%
    15:00 +32°C° 0 mm 1 mps 666 mmHg 35%
    16:00 +33°C° 0 mm 1 mps 666 mmHg 33%
    17:00 +31°C° 0 mm 1 mps 666 mmHg 38%
    18:00 +29°C° 0 mm 1 mps 666 mmHg 43%
    19:00 +28°C° 0 mm 2 mps 667 mmHg 47%
    20:00 +27°C° 0 mm 2 mps 667 mmHg 49%
    21:00 +26°C° 0 mm 2 mps 667 mmHg 52%
    22:00 +26°C° 0 mm 1 mps 668 mmHg 54%
    23:00 +25°C° 0.4 mm 2 mps 667 mmHg 61%

    27 March, Wednesday

    Time Temperature Precipitation Wind Pressure Humidity
    00:00 +24°C° 0.4 mm 2 mps 667 mmHg 67%
    01:00 +22°C° 0.4 mm 3 mps 667 mmHg 74%
    02:00 +23°C° 0 mm 2 mps 667 mmHg 74%
    03:00 +23°C° 0 mm 2 mps 667 mmHg 74%
    04:00 +22°C° 0 mm 1 mps 666 mmHg 75%
    05:00 +23°C° 0 mm 1 mps 667 mmHg 73%
    06:00 +23°C° 0 mm 1 mps 668 mmHg 70%
    07:00 +24°C° 0 mm 1 mps 668 mmHg 68%
    08:00 +27°C° 0 mm 1 mps 669 mmHg 58%
    09:00 +30°C° 0 mm 1 mps 669 mmHg 49%
    10:00 +33°C° 0 mm 1 mps 670 mmHg 39%
    11:00 +34°C° 0 mm 1 mps 670 mmHg 34%
    12:00 +36°C° 0 mm 2 mps 669 mmHg 29%
    13:00 +37°C° 0 mm 2 mps 669 mmHg 24%
    14:00 +36°C° 0 mm 2 mps 668 mmHg 26%
    15:00 +35°C° 0 mm 1 mps 668 mmHg 28%
    16:00 +34°C° 0 mm 1 mps 667 mmHg 29%
    17:00 +33°C° 0 mm 1 mps 667 mmHg 30%
    18:00 +32°C° 0 mm 1 mps 668 mmHg 32%
    19:00 +31°C° 0 mm 1 mps 668 mmHg 33%
    20:00 +30°C° 0 mm 1 mps 668 mmHg 35%
    21:00 +29°C° 0 mm 1 mps 668 mmHg 38%
    22:00 +28°C° 0 mm 1 mps 668 mmHg 40%
    23:00 +28°C° 0 mm 1 mps 668 mmHg 40%
    Show more